Plattsburgh, NY

7:51 PM EDT on March 26, 2017 (GMT -0400)
Plattsburgh International

Weather History for KPBG - November, 2011

Change the Weather History Date:

Wednesday, November 9, 2011

  Actual Average Record
Temperature  
Mean Temperature 51 °F 39 °F  
Max Temperature 66 °F 49 °F 66 °F (2011)
Min Temperature 35 °F 30 °F 12 °F (1971)
Degree Days  
Heating Degree Days 14 26  
Month to date heating degree days 202 219  
Since 1 July heating degree days 809 1002  
Cooling Degree Days 0 0  
Month to date cooling degree days 0  
Year to date cooling degree days 346  
Moisture  
Dew Point 43 °F    
Average Humidity 72    
Maximum Humidity 100    
Minimum Humidity 44    
Precipitation  
Precipitation 0.00 in - 0.82 in (1972)
Month to date precipitation 0.02  
Year to date precipitation 36.05  
Sea Level Pressure  
Sea Level Pressure 30.02 in    
Wind  
Wind Speed 7 mph (SE)    
Max Wind Speed 18 mph    
Max Gust Speed 24 mph    
Visibility 9 miles    
Events      
T = Trace of Precipitation, MM = Missing Value Source: NWS Daily Summary

Daily Weather History Graph

Daily Weather History Graph

Search for Another Location

Airport or City:

Trip Planner

Search our weather history database for the weather conditions in past years. The results will help you decide how hot, cold, wet, or windy it might be!

Date:

Astronomy

Nov. 09, 2011 Rise Set
Actual Time 6:42 AM EST 4:32 PM EST
Civil Twilight 6:11 AM EST 5:03 PM EST
Nautical Twilight 5:36 AM EST 5:38 PM EST
Astronomical Twilight 5:01 AM EST 6:12 PM EST
Moon 3:42 PM EST (11/9) 5:34 AM EST (11/9)
Length of Visible Light 10h 52m
Length of Day
9h 50m
Waxing Gibbous, 99% of the Moon is Illuminated
Nov 9
Waxing Gibbous
Nov 10
Full
Nov 18
Last Quarter
Nov 25
New
Dec 2
First Quarter

Hourly Weather History & Observations

Time (EST) Temp. Dew Point Humidity Pressure Visibility Wind Dir Wind Speed Gust Speed Precip Events Conditions
12:53 AM 44.1 °F 42.1 °F 93% 30.16 in 9.0 mi Calm Calm - N/A   Scattered Clouds
1:53 AM 43.0 °F 41.0 °F 93% 30.15 in 9.0 mi Calm Calm - N/A   Clear
2:53 AM 41.0 °F 39.0 °F 93% 30.14 in 5.0 mi Calm Calm - N/A   Clear
3:53 AM 41.0 °F 39.0 °F 93% 30.13 in 7.0 mi Calm Calm - N/A   Clear
4:53 AM 37.9 °F 37.0 °F 97% 30.12 in 6.0 mi Calm Calm - N/A   Clear
5:53 AM 37.9 °F 36.0 °F 93% 30.12 in 5.0 mi Calm Calm - N/A   Clear
6:53 AM 37.0 °F 35.1 °F 93% 30.13 in 4.0 mi Calm Calm - N/A   Clear
7:53 AM 39.9 °F 37.9 °F 93% 30.13 in 6.0 mi Calm Calm - N/A   Clear
8:53 AM 50.0 °F 44.1 °F 80% 30.12 in 10.0 mi Calm Calm - N/A   Clear
9:53 AM 54.0 °F 48.0 °F 80% 30.10 in 10.0 mi SE 6.9 mph - N/A   Clear
10:53 AM 57.9 °F 48.0 °F 70% 30.09 in 10.0 mi SE 8.1 mph - N/A   Clear
11:53 AM 62.1 °F 50.0 °F 65% 30.04 in 10.0 mi SE 10.4 mph - N/A   Clear
12:53 PM 64.9 °F 48.0 °F 54% 30.01 in 10.0 mi SSE 16.1 mph - N/A   Clear
1:53 PM 64.9 °F 46.9 °F 52% 29.98 in 10.0 mi SSE 10.4 mph - N/A   Clear
2:53 PM 64.9 °F 46.9 °F 52% 29.96 in 10.0 mi SSE 13.8 mph - N/A   Clear
3:53 PM 64.0 °F 44.1 °F 48% 29.95 in 10.0 mi South 10.4 mph - N/A   Clear
4:53 PM 62.1 °F 41.0 °F 46% 29.94 in 10.0 mi South 6.9 mph - N/A   Clear
5:53 PM 59.0 °F 37.9 °F 46% 29.94 in 10.0 mi NE 3.5 mph - N/A   Clear
6:53 PM 55.9 °F 46.0 °F 69% 29.92 in 10.0 mi SSE 9.2 mph - N/A   Clear
7:53 PM 55.9 °F 45.0 °F 67% 29.90 in 10.0 mi SSE 6.9 mph - N/A   Clear
8:53 PM 55.9 °F 46.0 °F 69% 29.87 in 10.0 mi SE 18.4 mph - N/A   Clear
9:53 PM 55.9 °F 45.0 °F 67% 29.87 in 10.0 mi ESE 11.5 mph - N/A   Clear
10:53 PM 57.0 °F 37.9 °F 49% 29.86 in 10.0 mi SSE 12.7 mph 19.6 mph N/A   Clear
11:53 PM 57.0 °F 39.0 °F 51% 29.85 in 10.0 mi South 12.7 mph 24.2 mph N/A   Clear